DateTimeUTC,F1_A11,F1_S11,BsB_S11,BsG_S11,BsR_S11,BbsB_S11,BbsG_S11,BbsR_S11,BaB_A11,BaG_A11,BaR_A11,Tu_S11,T_S11,Uu_S11,U_S11,P_S11,T1_A11
2021-04-28T10:00:00Z,00040200,20000000,,,,,,,0000.35,0000.46,0000.09,18.7,25.6,02.6,01.7,0682.3,31.2
2021-04-28T10:01:00Z,00040200,20000000,,,,,,,0000.28,0000.42,0000.43,18.7,25.6,02.6,01.7,0682.3,31.2
2021-04-28T10:02:00Z,00040200,20000000,,,,,,,-000.00,0000.09,0000.13,18.7,25.6,02.6,01.7,0682.3,31.2
2021-04-28T10:03:00Z,00040200,60000000,,,,,,,0001.45,0001.32,0000.86,18.7,25.6,02.6,01.7,0682.3,31.2
2021-04-28T10:04:00Z,00040200,40000000,0002.22,0000.76,0000.22,0000.07,0000.14,0000.18,0000.89,0000.73,0000.64,18.8,25.5,03.3,02.2,0683.2,31.2
2021-04-28T10:05:00Z,00040200,00000000,0000.94,0000.94,0000.46,0000.26,0000.43,0000.02,0000.82,0000.77,0000.65,18.9,25.5,03.6,02.4,0683.3,31.2
2021-04-28T10:06:00Z,00040200,00000000,0001.04,0000.98,0000.68,0000.11,0000.15,0000.31,0000.78,0001.03,0000.69,18.9,25.5,03.8,02.5,0683.3,31.2
2021-04-28T10:07:00Z,00040200,00000000,0001.28,0001.09,0000.69,0000.18,0000.03,0000.59,0000.39,-000.06,0000.15,18.9,25.5,03.7,02.5,0683.3,31.2
2021-04-28T10:08:00Z,00040200,00000000,0001.64,0001.01,0000.48,0000.43,0000.28,0000.21,0000.19,0000.11,0000.12,18.9,25.5,03.7,02.5,0683.3,31.2
2021-04-28T10:09:00Z,00040200,00000000,0001.75,0000.87,0000.59,0000.74,0000.04,0000.36,0000.75,0000.74,0000.54,19.0,25.5,03.7,02.5,0683.3,31.2
2021-04-28T10:10:00Z,00040200,00000000,0001.15,0001.00,0000.23,0000.56,0000.38,0000.04,0000.29,0000.72,0000.47,19.0,25.5,03.6,02.4,0683.2,31.2
2021-04-28T10:11:00Z,00040200,00000000,0001.61,0000.87,0000.68,0000.13,0000.28,0000.28,0000.41,-000.11,-000.27,19.0,25.5,03.6,02.4,0683.2,31.2
2021-04-28T10:12:00Z,00040200,00000000,0001.29,0000.87,0000.52,0000.12,0000.23,0000.43,0000.49,0000.61,0000.81,19.0,25.5,03.6,02.4,0683.2,31.2
2021-04-28T10:13:00Z,00040200,00000000,0002.01,0000.93,0000.60,0000.40,0000.19,-000.16,0000.35,0000.50,0000.12,19.0,25.5,03.6,02.4,0683.2,31.2
2021-04-28T10:14:00Z,00040200,00000000,0001.23,0000.95,0000.58,0000.12,0000.04,0000.22,0000.05,-000.24,-000.21,19.0,25.5,03.6,02.4,0683.3,31.2
2021-04-28T10:15:00Z,00040200,00000000,0001.03,0000.83,0000.73,0000.58,0000.45,0000.08,0000.53,0000.17,0000.39,19.1,25.6,03.4,02.3,0683.3,31.2
2021-04-28T10:16:00Z,00040200,00000000,0001.92,0001.05,0000.77,0000.92,0000.36,0000.21,0000.33,0000.36,0000.53,19.1,25.6,03.4,02.3,0683.3,31.2
2021-04-28T10:17:00Z,00040200,00000000,0001.16,0001.14,0000.81,0000.02,0000.32,0000.11,0000.15,0000.70,0000.17,19.1,25.6,03.4,02.3,0683.3,31.2
2021-04-28T10:18:00Z,00040200,00000000,0001.00,0000.83,0000.66,0000.02,0000.39,0000.35,0000.66,0000.50,0000.23,19.1,25.6,03.4,02.3,0683.3,31.2
2021-04-28T10:19:00Z,00040200,00000000,0001.39,0001.03,0000.64,0000.37,0000.40,0000.30,0000.63,0000.53,0000.14,19.1,25.6,03.3,02.2,0683.3,31.2
2021-04-28T10:20:00Z,00040200,00000000,0001.89,0000.69,0000.74,0000.36,0000.24,0000.14,0000.31,-000.02,0000.54,19.1,25.6,03.3,02.2,0683.3,31.2
2021-04-28T10:21:00Z,00040200,00000000,0001.53,0001.18,0000.71,0000.03,0000.24,0000.35,0000.58,0000.78,0000.50,19.1,25.6,03.4,02.3,0683.3,31.2
2021-04-28T10:22:00Z,00040200,00000000,0001.59,0000.85,0000.79,-000.02,0000.35,-000.03,0000.31,0000.27,0000.16,19.1,25.6,03.4,02.3,0683.3,31.2
2021-04-28T10:23:00Z,00040200,00000000,0001.79,0000.83,0000.53,0000.54,0000.49,0000.03,0000.59,0000.60,0000.16,19.1,25.6,03.5,02.4,0683.3,31.2
2021-04-28T10:24:00Z,00040200,00000000,0001.21,0001.10,0000.56,0000.83,0000.15,0000.18,0000.43,0000.33,0000.35,19.2,25.6,03.4,02.3,0683.3,31.2
2021-04-28T10:25:00Z,00040200,00000000,0001.30,0000.87,0000.61,0000.46,0000.07,0000.16,0000.37,0000.25,0000.41,19.2,25.6,03.4,02.3,0683.3,31.2
2021-04-28T10:26:00Z,00040200,00000000,0001.52,0000.75,0000.92,0000.25,0000.41,0000.27,0000.76,0000.57,0000.17,19.2,25.7,03.4,02.3,0683.3,31.2
2021-04-28T10:27:00Z,00040200,00000000,0001.21,0000.85,0000.83,0000.45,0000.20,0000.43,0000.18,0000.21,0000.46,19.2,25.7,03.4,02.3,0683.2,31.2
2021-04-28T10:28:00Z,00040200,00000000,0001.28,0000.86,0000.15,0000.20,0000.18,0000.16,0000.19,0000.35,-000.06,19.2,25.7,03.4,02.3,0683.2,31.2
2021-04-28T10:29:00Z,00040200,00000000,0001.94,0000.82,0000.79,0000.24,0000.56,0000.19,0000.29,-000.09,0000.15,19.2,25.7,03.3,02.2,0683.2,31.2
2021-04-28T10:30:00Z,00040200,00000000,0001.40,0000.71,0000.91,0000.45,0000.37,0000.18,0000.37,0000.67,0000.54,19.2,25.7,03.2,02.2,0683.2,31.2
2021-04-28T10:31:00Z,00040200,00000000,0001.54,0000.92,0000.45,0000.07,0000.16,0000.33,0000.30,0000.00,0000.12,19.2,25.7,03.1,02.1,0683.3,31.2
2021-04-28T10:32:00Z,00040200,00000000,0002.10,0000.81,0000.77,0000.42,0000.19,0000.57,0000.39,0000.52,0000.25,19.2,25.7,03.1,02.1,0683.2,31.2
2021-04-28T10:33:00Z,00040200,00000000,0001.01,0001.03,0000.50,-000.13,0000.24,0000.29,0000.47,0000.31,0000.34,19.3,25.7,03.1,02.1,0683.3,31.2
2021-04-28T10:34:00Z,00040200,00000000,0001.14,0000.69,0000.60,0000.25,0000.28,0000.03,0000.25,0000.61,0000.16,19.3,25.7,03.2,02.1,0683.2,31.2
2021-04-28T10:35:00Z,00040200,00000000,0001.36,0000.72,0001.14,0000.04,0000.12,0000.29,0000.38,0000.51,0000.18,19.3,25.7,03.1,02.1,0683.2,31.2
2021-04-28T10:36:00Z,00040200,00000000,0000.95,0000.63,0000.70,0000.47,-000.03,0000.00,0000.30,-000.15,0000.27,19.3,25.7,03.1,02.1,0683.2,31.3
2021-04-28T10:37:00Z,00040200,00000000,0001.80,0001.06,0000.41,0000.14,0000.15,-000.07,0000.93,0000.86,0000.45,19.3,25.7,03.1,02.1,0683.2,31.2
2021-04-28T10:38:00Z,00040200,00000000,0001.37,0000.66,0000.47,-000.07,0000.34,0000.28,0000.22,0000.32,0000.52,19.3,25.8,03.1,02.1,0683.2,31.2
2021-04-28T10:39:00Z,00040200,00000000,0001.34,0001.10,0000.67,0000.29,0000.24,0000.04,0000.38,-000.01,0000.05,19.3,25.8,03.1,02.1,0683.2,31.2
2021-04-28T10:40:00Z,00040200,00000000,0001.65,0000.80,0001.03,0000.28,-000.04,0000.08,0000.19,0000.83,0000.36,19.3,25.8,03.1,02.1,0683.2,31.2
2021-04-28T10:41:00Z,00040200,00000000,0001.28,0001.24,0000.47,0000.28,0000.06,0000.09,0000.97,0000.04,0000.40,19.3,25.8,03.1,02.1,0683.2,31.2
2021-04-28T10:42:00Z,00040200,00000000,0000.96,0000.80,0000.69,0000.37,0000.35,0000.05,0000.58,0000.90,0000.28,19.3,25.8,03.1,02.1,0683.2,31.2
2021-04-28T10:43:00Z,00040200,00000000,0000.77,0000.93,0000.40,0000.31,-000.03,0000.18,0000.56,0000.49,0000.50,19.3,25.8,03.3,02.2,0683.2,31.2
2021-04-28T10:44:00Z,00040200,00000000,0001.14,0000.85,0000.70,0000.01,0000.23,0000.44,0000.57,0000.51,0000.53,19.3,25.8,03.4,02.3,0683.2,31.2
2021-04-28T10:45:00Z,00040200,00000000,0001.19,0000.94,0000.48,0000.14,0000.36,0000.07,0000.89,0000.62,0000.53,19.3,25.8,03.5,02.4,0683.2,31.2
2021-04-28T10:46:00Z,00040200,00000000,0001.32,0000.80,0000.83,0000.14,0000.01,0000.39,0000.53,0000.74,0000.77,19.3,25.8,03.6,02.4,0683.2,31.2
2021-04-28T10:47:00Z,00040200,00000000,0001.33,0000.98,0000.80,0000.39,0000.03,0000.09,0000.87,0001.01,0000.67,19.3,25.8,03.7,02.5,0683.2,31.2
2021-04-28T10:48:00Z,00040200,00000000,0001.22,0000.76,0000.83,0000.26,0000.22,0000.09,0000.72,0000.31,0000.06,19.3,25.8,03.7,02.5,0683.2,31.2
2021-04-28T10:49:00Z,00040200,00000000,0000.82,0000.88,0000.75,0000.44,0000.19,0000.23,0000.47,0000.34,0000.33,19.3,25.8,03.8,02.6,0683.2,31.2
2021-04-28T10:50:00Z,00040200,00000000,0001.10,0001.15,0000.72,0000.34,-000.15,0000.36,0000.23,0000.54,0000.26,19.3,25.8,03.8,02.5,0683.2,31.2
2021-04-28T10:51:00Z,00040200,00000000,0001.53,0000.81,0000.55,0000.42,0000.02,0000.03,0000.71,0000.37,0000.44,19.3,25.8,03.8,02.6,0683.2,31.2
2021-04-28T10:52:00Z,00040200,00000000,0001.30,0001.24,0000.71,0000.16,0000.45,0000.08,0000.61,0000.45,0000.14,19.4,25.8,03.9,02.6,0683.2,31.2
2021-04-28T10:53:00Z,00040200,00000000,0001.18,0000.93,0000.82,0000.09,0000.17,0000.11,0000.32,0000.74,0000.39,19.3,25.8,03.9,02.6,0683.2,31.2
2021-04-28T10:54:00Z,00040200,00000000,0001.50,0000.65,0000.62,0000.00,0000.15,0000.41,-000.07,0000.04,0000.20,19.3,25.8,03.8,02.5,0683.2,31.2
2021-04-28T10:55:00Z,00040200,00000000,0001.19,0001.05,0000.82,0000.80,0000.22,0000.44,-000.17,-000.12,-000.02,19.3,25.8,03.5,02.4,0683.3,31.2
2021-04-28T10:56:00Z,00040200,00000000,0001.32,0000.95,0000.98,-000.48,0000.34,0000.33,0000.44,0000.08,0000.03,19.3,25.8,03.4,02.3,0683.3,31.3
2021-04-28T10:57:00Z,00040200,40000000,,,,,,,0000.09,-000.03,-000.14,19.4,25.9,03.6,02.4,0683.3,31.2
2021-04-28T10:58:00Z,00040200,60000000,,,,,,,-000.37,-000.19,-000.11,19.1,26.0,03.4,02.2,0682.2,31.2
2021-04-28T10:59:00Z,00040200,20000000,,,,,,,-000.07,-000.39,-000.00,19.1,26.1,03.2,02.1,0682.3,31.2
